Hourly Data Report for September 18, 2017

All times are specified in Local Standard Time (LST). Add 1 hour to adjust for Daylight Saving Time where and when it is observed.

FISHER BRANCH (AUT)
MANITOBA

51°05'00.100" N
97°33'16.200" W
253.00 m
50309J6
71442
WSZ

Download Data

Hourly Data (September 2017)
Hourly Data Report for September 18, 2017
Temp Definition
°C
Dew Point Temp Definition
°C
Rel Hum Definition
%
Wind Dir Definition
10's deg

Wind Spd Definition
km/h
Visibility Definition
km
Stn Press Definition
kPa
Hmdx Definition


Wind Chill Definition


Weather Definition


TIME
00:00 1.8 1.2 96 18 6   98.45     LegendNANA
01:00 2.4 2.0 97 22 6   98.46     LegendNANA
02:00 3.2 2.7 96 20 4   98.46     LegendNANA
03:00 3.7 3.1 96 36 3   98.43     LegendNANA
04:00 4.2 3.6 96 19 3   98.45     LegendNANA
05:00 4.3 3.8 96 14 4   98.41     LegendNANA
06:00 4.7 4.1 96 4 3   98.42     LegendNANA
07:00 5.2 4.5 95 8 5   98.45     LegendNANA
08:00 6.2 4.7 90 9 4   98.47     LegendNANA
09:00 8.4 5.3 81 11 12   98.47     LegendNANA
10:00 11.0 4.1 63 10 14   98.46     LegendNANA
11:00 12.9 4.2 56 11 14   98.44     LegendNANA
12:00 14.5 5.9 56 9 16   98.37     LegendNANA
13:00 15.6 7.8 60 10 18   98.32     LegendNANA
14:00 15.3 7.0 58 10 16   98.25     LegendNANA
15:00 15.4 6.8 56 10 18   98.21     LegendNANA
16:00 15.5 6.9 56 9 15   98.19     LegendNANA
17:00 15.3 7.2 59 9 15   98.20     LegendNANA
18:00 13.7 7.6 67 8 13   98.19     LegendNANA
19:00 10.8 7.3 79 6 12   98.18     LegendNANA
20:00 8.8 6.3 85 7 7   98.18     LegendNANA
21:00 7.8 6.2 90 8 8   98.16     LegendNANA
22:00 8.4 6.8 90 8 9   98.12     LegendNANA
23:00 8.2 7.0 92 8 6   98.11     LegendNANA

Notes on Data Quality.

Legend

  • E = Estimated
  • M = Missing
  • NA = Not Available
  • ‡ = Partner data that is not subject to review by the National Climate Archives
Date modified: